Powrót do katalogu

COSMOS 1375 DEB

AktywnyLEO
NORAD 17102·DEBRIS·🇷🇺 Russia

Wystrzelony Jun 6, 1982 z Plesetsk Cosmodrome

Loading…

Następne Przeloty (najbliższe 24 godziny)

TLE

ŚwieżeSource: Space-Track

Epoka: Sep 14, 2026, 05:04 UTC

1 17102U 82055AD  26257.21128949 -.00000047  00000-0  39454-4 0  9990
2 17102  65.8374 336.9872 0064349  85.1090 303.8907 13.61049068 31960

Śledź COSMOS 1375 DEB w czasie rzeczywistym z AllMySat

Download on the App Store